الكل
Maitland Airport (Maitland South Australia) YMLD حالة الطقس
There is no TAF data available at YMLD or any nearby airports.
There is no METAR data available at YMLD. Showing METAR data for YMIN (26 mi جنوبي غربي).
محفوظات أحدث تقرير روتيني عن حالة الطقس من أجل الطيران (الميتار) XML ( لا توجد بيانات لـYMLD)
| Date | Time (ACST) | Flight Rules | Wind Dir. | Speed | Type | Height AGL (ft) | Visibility | Temp (°C) | Temp (°F) | Dew Point (°C) | Dew Point (°F) | Rel. Humid. | Pressure | Density Altitude | Remarks |
|---|---|---|---|---|---|---|---|---|---|---|---|---|---|---|---|
| 05-سبت | 06:30 | n/a | 290° | 17 kt | Missing | 13° | 55° | 10° | 50° | 82% | 1010 mb | -33 ft | |||
| 05-سبت | 05:30 | n/a | Calm | Missing | 13° | 55° | 10° | 50° | 82% | 1010 mb | -33 ft | ||||
| 05-سبت | 04:30 | n/a | 280° | 20 kt | Missing | 14° | 57° | 10° | 50° | 77% | 1009 mb | 116 ft | |||
| 05-سبت | 03:38 | n/a | 300° | 19 kt | Missing | 14° | 57° | 12° | 53° | 88% | 1009 mb | 116 ft | Wind gusting to 29 KT | ||
| 05-سبت | 02:30 | n/a | 320° | 13 kt | Missing | 15° | 59° | 13° | 55° | 88% | 1008 mb | 266 ft | |||
| 05-سبت | 01:30 | n/a | 300° | 10 kt | Missing | 15° | 59° | 13° | 55° | 88% | 1009 mb | 236 ft | |||
| 05-سبت | 00:30 | n/a | 330° | 10 kt | Missing | 15° | 59° | 13° | 55° | 88% | 1009 mb | 236 ft | |||
| gap in available data | |||||||||||||||
| 04-سبت | 23:00 | n/a | 320° | 11 kt | Missing | 15° | 59° | 13° | 55° | 88% | 1009 mb | 236 ft | |||
| 04-سبت | 22:30 | n/a | 340° | 11 kt | Missing | 15° | 59° | 13° | 55° | 88% | 1009 mb | 236 ft | |||
| 04-سبت | 21:30 | n/a | 350° | 11 kt | Missing | 16° | 60° | 13° | 55° | 82% | 1008 mb | 386 ft | |||
| 04-سبت | 20:30 | n/a | 360° | 14 kt | Missing | 16° | 60° | 13° | 55° | 82% | 1008 mb | 386 ft | |||
| 04-سبت | 19:30 | n/a | 350° | 14 kt | Missing | 17° | 62° | 13° | 55° | 77% | 1008 mb | 506 ft | |||
| 04-سبت | 18:30 | n/a | 360° | 13 kt | Missing | 17° | 62° | 13° | 55° | 77% | 1008 mb | 506 ft | |||
| 04-سبت | 17:30 | n/a | 10° | 9 kt | Missing | 17° | 62° | 14° | 57° | 82% | 1007 mb | 535 ft | |||
| 04-سبت | 16:30 | n/a | 10° | 11 kt | Missing | 19° | 66° | 15° | 59° | 78% | 1008 mb | 746 ft | |||
| 04-سبت | 15:30 | n/a | 20° | 12 kt | Missing | 19° | 66° | 15° | 59° | 78% | 1008 mb | 746 ft | |||
| 04-سبت | 14:30 | n/a | 10° | 14 kt | Missing | 20° | 68° | 14° | 57° | 68% | 1009 mb | 836 ft | |||
| gap in available data | |||||||||||||||
| 04-سبت | 13:00 | n/a | 30° | 15 kt | Missing | 17° | 62° | 13° | 55° | 77% | 1011 mb | 417 ft | |||
| 04-سبت | 12:30 | n/a | 40° | 14 kt | Missing | 17° | 62° | 13° | 55° | 77% | 1011 mb | 417 ft | |||
| 04-سبت | 11:36 | n/a | 40° | 9 kt | Missing | 15° | 59° | 13° | 55° | 88% | 1013 mb | 118 ft | |||
| 04-سبت | 10:30 | n/a | 10° | 9 kt | Missing | 13° | 55° | 11° | 51° | 88% | 1014 mb | -151 ft | |||
| 04-سبت | 09:30 | n/a | 10° | 16 kt | Missing | 14° | 57° | 11° | 51° | 82% | 1015 mb | -61 ft | |||
| 04-سبت | 08:30 | n/a | 20° | 9 kt | Missing | 14° | 57° | 11° | 51° | 82% | 1015 mb | -61 ft | |||
| 04-سبت | 07:30 | n/a | 20° | 9 kt | Missing | 13° | 55° | 11° | 51° | 88% | 1015 mb | -181 ft | |||
تسجيل الدخول
| مُتصفحك غير مُدعَّم. قم بترقية متصفحك |
